Weather History for Alva, OK

Change the Weather History Date:

Wednesday, April 16, 2014

  Actual Average Record
Temperature  
Mean Temperature 58 °F -  
Max Temperature 71 °F 75 °F 93 °F (1963)
Min Temperature 46 °F 48 °F 29 °F (1953)
Degree Days  
Heating Degree Days 6    
Growing Degree Days 8 (Base 50)    
Moisture  
Dew Point 26 °F    
Average Humidity 30    
Maximum Humidity 48    
Minimum Humidity 19    
Precipitation  
Precipitation 0.00 in - - ()
Sea Level Pressure  
Sea Level Pressure 29.86 in    
Wind  
Wind Speed 18 mph (South)    
Max Wind Speed 30 mph    
Max Gust Speed 43 mph    
Visibility 10 miles    
Events      
Averages and records for this station are not official NWS values.
T = Trace of Precipitation, MM = Missing Value Source: NWS Daily Summary

Daily Weather History Graph

Daily Weather History Graph

Search for Another Location

Airport:

Trip Planner

Search our weather history database for the weather conditions in past years. The results will help you decide how hot, cold, wet, or windy it might be!

Date:

Astronomy

Apr. 16, 2014 Rise Set
Actual Time 6:59 AM CDT 8:10 PM CDT
Civil Twilight 6:32 AM CDT 8:36 PM CDT
Nautical Twilight 6:00 AM CDT 9:08 PM CDT
Astronomical Twilight 5:27 AM CDT 9:42 PM CDT
Moon 9:53 PM CDT (4/16) 7:49 AM CDT (4/16)
Length of Visible Light 14h 04m
Length of Day
13h 10m
Full, 98% of the Moon is Illuminated
Apr 16
Full
Apr 22
Last Quarter
Apr 29
New
May 6
First Quarter
May 14
Full

Hourly Weather History & Observations

Time (CDT) Temp. Windchill Dew Point Humidity Pressure Visibility Wind Dir Wind Speed Gust Speed Precip Events Conditions
12:15 AM 48.2 °F - 17.6 °F 30% 29.91 in 10.0 mi South 17.3 mph 21.9 mph N/A   Overcast
12:35 AM 48.2 °F - 17.6 °F 30% 29.90 in 10.0 mi South 18.4 mph 23.0 mph N/A   Overcast
12:55 AM 48.2 °F - 17.6 °F 30% 29.89 in 10.0 mi South 18.4 mph - N/A   Overcast
1:15 AM 46.4 °F 39.8 °F 17.6 °F 32% 29.89 in 10.0 mi South 16.1 mph - N/A   Overcast
1:35 AM 46.4 °F 39.0 °F 17.6 °F 32% 29.89 in 10.0 mi South 19.6 mph - N/A   Overcast
1:55 AM 46.4 °F 39.2 °F 17.6 °F 32% 29.88 in 10.0 mi South 18.4 mph - N/A   Overcast
2:15 AM 46.4 °F 39.2 °F 19.4 °F 34% 29.87 in 10.0 mi South 18.4 mph 24.2 mph N/A   Overcast
2:35 AM 46.4 °F 39.2 °F 19.4 °F 34% 29.87 in 10.0 mi South 18.4 mph - N/A   Overcast
2:55 AM 46.4 °F 39.2 °F 19.4 °F 34% 29.86 in 10.0 mi South 18.4 mph 24.2 mph N/A   Mostly Cloudy
3:15 AM 46.4 °F 39.0 °F 19.4 °F 34% 29.85 in 10.0 mi South 19.6 mph 24.2 mph N/A   Scattered Clouds
3:35 AM 46.4 °F 39.0 °F 19.4 °F 34% 29.85 in 10.0 mi South 19.6 mph - N/A   Partly Cloudy
3:55 AM 46.4 °F 38.7 °F 19.4 °F 34% 29.84 in 10.0 mi South 20.7 mph 25.3 mph N/A   Partly Cloudy
4:15 AM 46.4 °F 39.0 °F 19.4 °F 34% 29.84 in 10.0 mi South 19.6 mph 25.3 mph N/A   Clear
4:35 AM 46.4 °F 39.2 °F 21.2 °F 37% 29.84 in 10.0 mi South 18.4 mph - N/A   Clear
4:55 AM 46.4 °F 39.5 °F 21.2 °F 37% 29.82 in 10.0 mi South 17.3 mph 23.0 mph N/A   Clear
5:15 AM 48.2 °F - 19.4 °F 32% 29.82 in 10.0 mi South 24.2 mph 29.9 mph N/A   Clear
5:35 AM 48.2 °F - 21.2 °F 34% 29.82 in 10.0 mi South 23.0 mph 29.9 mph N/A   Clear
5:55 AM 48.2 °F - 21.2 °F 34% 29.81 in 10.0 mi South 20.7 mph 26.5 mph N/A   Clear
6:15 AM 48.2 °F - 21.2 °F 34% 29.81 in 10.0 mi South 21.9 mph 28.8 mph N/A   Clear
6:35 AM 48.2 °F - 21.2 °F 34% 29.80 in 10.0 mi South 24.2 mph 31.1 mph N/A   Clear
6:55 AM 48.2 °F - 23.0 °F 37% 29.81 in 10.0 mi South 24.2 mph 28.8 mph N/A   Clear
7:15 AM 46.4 °F 39.2 °F 23.0 °F 40% 29.81 in 10.0 mi South 18.4 mph 26.5 mph N/A   Clear
7:35 AM 46.4 °F 39.0 °F 24.8 °F 43% 29.80 in 10.0 mi South 19.6 mph - N/A   Clear
7:55 AM 48.2 °F - 24.8 °F 40% 29.81 in 10.0 mi South 21.9 mph 29.9 mph N/A   Clear
8:15 AM 48.2 °F - 24.8 °F 40% 29.81 in 10.0 mi South 21.9 mph 34.5 mph N/A   Clear
8:35 AM 50.0 °F - 24.8 °F 37% 29.82 in 10.0 mi South 25.3 mph 33.4 mph N/A   Clear
8:55 AM 50.0 °F - 26.6 °F 40% 29.82 in 10.0 mi South 19.6 mph 33.4 mph N/A   Clear
9:15 AM 53.6 °F - 26.6 °F 35% 29.81 in 10.0 mi SSW 28.8 mph 34.5 mph N/A   Clear
9:35 AM 55.4 °F - 24.8 °F 31% 29.82 in 10.0 mi SSW 29.9 mph 42.6 mph N/A   Clear
9:55 AM 55.4 °F - 24.8 °F 31% 29.84 in 10.0 mi SSW 23.0 mph 38.0 mph N/A   Clear
10:15 AM 57.2 °F - 24.8 °F 29% 29.84 in 10.0 mi SSW 29.9 mph 36.8 mph N/A   Clear
10:35 AM 59.0 °F - 24.8 °F 27% 29.84 in 10.0 mi SSW 28.8 mph 36.8 mph N/A   Clear
10:55 AM 59.0 °F - 26.6 °F 29% 29.85 in 10.0 mi SSW 24.2 mph 36.8 mph N/A   Clear
11:15 AM 59.0 °F - 26.6 °F 29% 29.86 in 10.0 mi SSW 26.5 mph 34.5 mph N/A   Clear
11:35 AM 59.0 °F - 26.6 °F 29% 29.86 in 10.0 mi SW 25.3 mph 33.4 mph N/A   Clear
11:55 AM 62.6 °F - 26.6 °F 26% 29.86 in 10.0 mi SSW 23.0 mph 38.0 mph N/A   Clear
12:15 PM 62.6 °F - 26.6 °F 26% 29.86 in 10.0 mi SW 24.2 mph 31.1 mph N/A   Clear
12:35 PM 62.6 °F - 28.4 °F 27% 29.86 in 10.0 mi SSW 21.9 mph 29.9 mph N/A   Clear
12:55 PM 64.4 °F - 26.6 °F 24% 29.86 in 10.0 mi SSW 15.0 mph 31.1 mph N/A   Clear
1:15 PM 66.2 °F - 28.4 °F 24% 29.86 in 10.0 mi SW 19.6 mph 28.8 mph N/A   Clear
1:35 PM 66.2 °F - 26.6 °F 23% 29.85 in 10.0 mi SW 17.3 mph 27.6 mph N/A   Clear
1:55 PM 68.0 °F - 28.4 °F 23% 29.84 in 10.0 mi SSW 18.4 mph 26.5 mph N/A   Clear
2:15 PM 68.0 °F - 26.6 °F 21% 29.84 in 10.0 mi SSW 12.7 mph 23.0 mph N/A   Clear
2:35 PM 69.8 °F - 28.4 °F 21% 29.84 in 10.0 mi SSW 13.8 mph 21.9 mph N/A   Clear
2:55 PM 69.8 °F - 28.4 °F 21% 29.84 in 10.0 mi SSW 13.8 mph 19.6 mph N/A   Clear
3:15 PM 71.6 °F - 28.4 °F 20% 29.84 in 10.0 mi SSW 13.8 mph 19.6 mph N/A   Clear
3:35 PM 71.6 °F - 28.4 °F 20% 29.83 in 10.0 mi SW 10.4 mph 19.6 mph N/A   Clear
3:55 PM 71.6 °F - 28.4 °F 20% 29.83 in 10.0 mi SSW 12.7 mph 18.4 mph N/A   Clear
4:15 PM 71.6 °F - 28.4 °F 20% 29.83 in 10.0 mi SW 8.1 mph 16.1 mph N/A   Clear
4:35 PM 71.6 °F - 26.6 °F 19% 29.83 in 10.0 mi SSW 10.4 mph 16.1 mph N/A   Clear
4:55 PM 71.6 °F - 28.4 °F 20% 29.83 in 10.0 mi South 9.2 mph 17.3 mph N/A   Clear
5:15 PM 71.6 °F - 30.2 °F 22% 29.83 in 10.0 mi SW 8.1 mph - N/A   Clear
5:35 PM 69.8 °F - 28.4 °F 21% 29.82 in 10.0 mi South 10.4 mph - N/A   Clear
5:55 PM 71.6 °F - 28.4 °F 20% 29.83 in 10.0 mi South 10.4 mph - N/A   Clear
6:15 PM 69.8 °F - 28.4 °F 21% 29.84 in 10.0 mi South 12.7 mph - N/A   Clear
6:35 PM 71.6 °F - 28.4 °F 20% 29.85 in 10.0 mi South 10.4 mph - N/A   Clear
6:55 PM 69.8 °F - 28.4 °F 21% 29.85 in 10.0 mi South 9.2 mph - N/A   Clear
7:15 PM 68.0 °F - 28.4 °F 23% 29.85 in 10.0 mi South 9.2 mph - N/A   Clear
7:35 PM 66.2 °F - 30.2 °F 26% 29.86 in 10.0 mi SSE 9.2 mph - N/A   Clear
7:55 PM 62.6 °F - 28.4 °F 27% 29.87 in 10.0 mi SSE 9.2 mph - N/A   Clear
8:15 PM 62.6 °F - 28.4 °F 27% 29.87 in 10.0 mi SSE 9.2 mph - N/A   Clear
8:35 PM 57.2 °F - 30.2 °F 36% 29.88 in 10.0 mi SE 8.1 mph - N/A   Clear
8:55 PM 57.2 °F - 30.2 °F 36% 29.90 in 10.0 mi SE 8.1 mph - N/A   Clear
9:15 PM 55.4 °F - 28.4 °F 36% 29.93 in 10.0 mi North 3.5 mph - N/A   Clear
9:35 PM 60.8 °F - 28.4 °F 29% 29.95 in 10.0 mi Calm Calm - N/A   Clear
9:55 PM 60.8 °F - 30.2 °F 31% 29.96 in 10.0 mi SSW 4.6 mph - N/A   Partly Cloudy
10:15 PM 59.0 °F - 32.0 °F 36% 29.97 in 10.0 mi SSW 6.9 mph - N/A   Partly Cloudy
10:35 PM 57.2 °F - 30.2 °F 36% 29.98 in 10.0 mi South 6.9 mph - N/A   Partly Cloudy
10:55 PM 55.4 °F - 32.0 °F 41% 29.99 in 10.0 mi SSE 8.1 mph - N/A   Partly Cloudy
11:15 PM 53.6 °F - 32.0 °F 44% 30.03 in 10.0 mi North 12.7 mph - N/A   Partly Cloudy
11:35 PM 59.0 °F - 33.8 °F 39% 30.04 in 10.0 mi North 17.3 mph 23.0 mph N/A   Partly Cloudy
11:55 PM 57.2 °F - 37.4 °F 48% 30.05 in 10.0 mi NNE 17.3 mph 23.0 mph N/A   Mostly Cloudy